TimePDT,TemperatureF,Dew PointF,Humidity,Sea Level PressureIn,VisibilityMPH,Wind Direction,Wind SpeedMPH,Gust SpeedMPH,PrecipitationIn,Events,Conditions,WindDirDegrees,DateUTC
12:53 AM,39.9,30.9,70,29.95,10.0,Calm,Calm,-,N/A,,Clear,0,2012-10-24 07:53:00
1:53 AM,39.9,30.9,70,29.94,10.0,East,5.8,-,N/A,,Clear,100,2012-10-24 08:53:00
2:53 AM,41.0,30.9,67,29.92,10.0,East,9.2,-,N/A,,Clear,100,2012-10-24 09:53:00
3:53 AM,39.9,30.0,68,29.92,10.0,East,5.8,-,N/A,,Clear,90,2012-10-24 10:53:00
4:53 AM,41.0,30.0,65,29.91,10.0,East,8.1,-,N/A,,Clear,100,2012-10-24 11:53:00
5:53 AM,41.0,28.9,62,29.91,10.0,ESE,4.6,-,N/A,,Clear,120,2012-10-24 12:53:00
6:53 AM,41.0,28.0,60,29.93,10.0,Calm,Calm,-,N/A,,Clear,0,2012-10-24 13:53:00
7:33 AM,37.4,28.4,70,29.92,2.5,Calm,Calm,-,N/A,,Clear,0,2012-10-24 14:33:00
7:40 AM,37.4,28.4,70,29.92,10.0,Calm,Calm,-,N/A,,Clear,0,2012-10-24 14:40:00
7:53 AM,39.0,28.9,67,29.95,10.0,Calm,Calm,-,N/A,,Clear,0,2012-10-24 14:53:00
8:53 AM,39.9,32.0,73,29.97,10.0,Calm,Calm,-,N/A,,Mostly Cloudy,0,2012-10-24 15:53:00
9:53 AM,39.0,33.1,79,29.99,10.0,East,3.5,-,0.00,Rain,Light Rain,100,2012-10-24 16:53:00
10:53 AM,43.0,36.0,76,29.99,10.0,North,6.9,-,0.00,,Overcast,360,2012-10-24 17:53:00
11:53 AM,44.1,37.0,76,30.01,10.0,NW,3.5,-,0.00,Rain,Light Rain,310,2012-10-24 18:53:00
12:53 PM,46.9,37.9,71,30.00,10.0,ENE,6.9,-,0.00,,Overcast,60,2012-10-24 19:53:00
2:53 PM,46.0,39.9,79,30.03,5.0,Calm,Calm,-,0.02,Rain,Rain,0,2012-10-24 21:53:00
3:53 PM,46.0,41.0,83,30.04,5.0,SE,9.2,-,0.02,Rain,Light Rain,130,2012-10-24 22:53:00
4:53 PM,46.0,39.9,79,30.05,10.0,ESE,6.9,-,0.00,,Mostly Cloudy,110,2012-10-24 23:53:00
5:53 PM,45.0,39.9,82,30.06,10.0,SSE,3.5,-,N/A,,Partly Cloudy,150,2012-10-25 00:53:00
6:53 PM,41.0,39.9,96,30.09,4.0,West,3.5,-,N/A,,Clear,280,2012-10-25 01:53:00
6:58 PM,39.2,39.2,100,30.06,1.8,Calm,Calm,-,N/A,,Clear,0,2012-10-25 01:58:00
7:27 PM,41.0,39.2,93,30.08,2.5,Calm,Calm,-,N/A,,Clear,0,2012-10-25 02:27:00
7:34 PM,41.0,39.2,93,30.08,4.0,SSW,3.5,-,N/A,,Partly Cloudy,200,2012-10-25 02:34:00
7:49 PM,39.2,39.2,100,30.09,4.0,SSW,4.6,-,N/A,,Mostly Cloudy,200,2012-10-25 02:49:00
7:53 PM,41.0,39.9,96,30.11,4.0,South,4.6,-,N/A,,Mostly Cloudy,190,2012-10-25 02:53:00
8:13 PM,41.0,39.2,93,30.09,5.0,SSE,3.5,-,N/A,,Mostly Cloudy,150,2012-10-25 03:13:00
9:32 PM,39.2,37.4,93,30.12,4.0,South,4.6,-,N/A,,Scattered Clouds,170,2012-10-25 04:32:00
9:41 PM,39.2,39.2,100,30.13,3.0,South,5.8,-,N/A,,Mostly Cloudy,180,2012-10-25 04:41:00
9:53 PM,39.9,39.0,97,30.15,3.0,SSE,3.5,-,N/A,,Overcast,160,2012-10-25 04:53:00
10:32 PM,41.0,39.2,93,30.14,4.0,SE,4.6,-,N/A,,Overcast,140,2012-10-25 05:32:00
10:53 PM,41.0,39.9,96,30.17,4.0,SSE,4.6,-,N/A,,Overcast,150,2012-10-25 05:53:00
11:40 PM,39.2,39.2,100,30.16,2.5,Calm,Calm,-,N/A,,Overcast,0,2012-10-25 06:40:00
11:53 PM,39.9,39.9,100,30.18,2.0,SE,3.5,-,N/A,,Overcast,140,2012-10-25 06:53:00